Time,TemperatureF,DewpointF,PressureIn,WindDirection,WindDirectionDegrees,WindSpeedMPH,WindSpeedGustMPH,Humidity,HourlyPrecipIn,Conditions,Clouds,dailyrainin,SolarRadiationWatts/m^2,SoftwareType,DateUTC
2013-05-07 00:02:00,36.9,29.7,29.91,WNW,299,5.0,8.0,75,0.00,,,0.00,0.0,meteohub,2013-05-07 06:02:00,
2013-05-07 00:07:00,36.1,29.3,29.91,WNW,299,4.0,7.0,76,0.00,,,0.00,0.0,meteohub,2013-05-07 06:07:00,
2013-05-07 00:13:00,36.0,29.5,29.91,WNW,299,1.0,6.0,77,0.00,,,0.00,0.0,meteohub,2013-05-07 06:13:00,
2013-05-07 00:18:00,35.6,29.1,29.91,WNW,299,0.0,6.0,77,0.00,,,0.00,0.0,meteohub,2013-05-07 06:18:00,
2013-05-07 00:23:00,35.4,29.3,29.91,WNW,299,3.0,6.0,78,0.00,,,0.00,0.0,meteohub,2013-05-07 06:23:00,
2013-05-07 00:28:00,35.1,29.1,29.91,WNW,299,0.0,4.0,79,0.00,,,0.00,0.0,meteohub,2013-05-07 06:28:00,
2013-05-07 00:33:00,34.9,29.1,29.91,WNW,299,0.0,4.0,79,0.00,,,0.00,0.0,meteohub,2013-05-07 06:33:00,
2013-05-07 00:39:00,34.5,28.8,29.91,WNW,299,2.0,4.0,79,0.00,,,0.00,0.0,meteohub,2013-05-07 06:39:00,
2013-05-07 00:44:00,34.3,28.6,29.91,WNW,299,2.0,2.0,79,0.00,,,0.00,0.0,meteohub,2013-05-07 06:44:00,
2013-05-07 00:49:00,34.3,28.8,29.91,WNW,299,4.0,5.0,80,0.00,,,0.00,0.0,meteohub,2013-05-07 06:49:00,
2013-05-07 00:54:00,34.3,28.8,29.90,WNW,299,6.0,6.0,80,0.00,,,0.00,0.0,meteohub,2013-05-07 06:54:00,
2013-05-07 00:59:00,34.9,29.3,29.90,WNW,299,5.0,6.0,80,0.00,,,0.00,0.0,meteohub,2013-05-07 06:59:00,
2013-05-07 01:05:00,35.2,29.1,29.90,WNW,299,5.0,7.0,78,0.00,,,0.00,0.0,meteohub,2013-05-07 07:05:00,
2013-05-07 01:10:00,35.4,28.9,29.90,WNW,299,5.0,7.0,77,0.00,,,0.00,0.0,meteohub,2013-05-07 07:10:00,
2013-05-07 01:15:00,35.4,28.9,29.90,WNW,299,6.0,8.0,77,0.00,,,0.00,0.0,meteohub,2013-05-07 07:15:00,
2013-05-07 01:20:00,35.2,28.8,29.90,WNW,299,1.0,8.0,77,0.00,,,0.00,0.0,meteohub,2013-05-07 07:20:00,
2013-05-07 01:25:00,35.1,28.2,29.90,WNW,299,4.0,8.0,76,0.00,,,0.00,0.0,meteohub,2013-05-07 07:25:00,
2013-05-07 01:31:00,34.9,28.4,29.90,WNW,299,4.0,8.0,77,0.00,,,0.00,0.0,meteohub,2013-05-07 07:31:00,
2013-05-07 01:36:00,34.5,28.0,29.89,WNW,299,5.0,8.0,77,0.00,,,0.00,0.0,meteohub,2013-05-07 07:36:00,
2013-05-07 01:41:00,34.5,27.7,29.89,WNW,299,6.0,8.0,76,0.00,,,0.00,0.0,meteohub,2013-05-07 07:41:00,
2013-05-07 01:46:00,34.7,27.7,29.89,WNW,299,5.0,7.0,75,0.00,,,0.00,0.0,meteohub,2013-05-07 07:46:00,
2013-05-07 01:51:00,34.9,27.5,29.89,WNW,299,7.0,7.0,74,0.00,,,0.00,0.0,meteohub,2013-05-07 07:51:00,
2013-05-07 01:56:00,35.1,27.3,29.89,WNW,300,5.0,8.0,73,0.00,,,0.00,0.0,meteohub,2013-05-07 07:56:00,
2013-05-07 02:02:00,35.1,27.3,29.89,WNW,300,4.0,8.0,73,0.00,,,0.00,0.0,meteohub,2013-05-07 08:02:00,
2013-05-07 02:07:00,34.7,27.0,29.89,WNW,300,2.0,8.0,73,0.00,,,0.00,0.0,meteohub,2013-05-07 08:07:00,
2013-05-07 02:12:00,34.5,27.1,29.89,WNW,300,0.0,7.0,74,0.00,,,0.00,0.0,meteohub,2013-05-07 08:12:00,
2013-05-07 02:17:00,34.2,27.3,29.89,WNW,300,0.0,5.0,76,0.00,,,0.00,0.0,meteohub,2013-05-07 08:17:00,
2013-05-07 02:22:00,33.8,27.7,29.89,WNW,300,0.0,5.0,78,0.00,,,0.00,0.0,meteohub,2013-05-07 08:22:00,
2013-05-07 02:28:00,33.3,27.1,29.89,WNW,300,0.0,2.0,78,0.00,,,0.00,0.0,meteohub,2013-05-07 08:28:00,
2013-05-07 02:33:00,33.3,26.8,29.89,WNW,300,1.0,2.0,77,0.00,,,0.00,0.0,meteohub,2013-05-07 08:33:00,
2013-05-07 02:38:00,33.6,28.0,29.90,WNW,300,0.0,5.0,80,0.00,,,0.00,0.0,meteohub,2013-05-07 08:38:00,
2013-05-07 02:43:00,33.4,27.9,29.89,WNW,300,0.0,5.0,80,0.00,,,0.00,0.0,meteohub,2013-05-07 08:43:00,
2013-05-07 02:48:00,33.4,28.2,29.89,WNW,300,2.0,5.0,81,0.00,,,0.00,0.0,meteohub,2013-05-07 08:48:00,
2013-05-07 02:54:00,33.3,27.7,29.89,WNW,300,4.0,7.0,80,0.00,,,0.00,0.0,meteohub,2013-05-07 08:54:00,
2013-05-07 02:59:00,33.4,27.7,29.89,WNW,300,3.0,7.0,79,0.00,,,0.00,0.0,meteohub,2013-05-07 08:59:00,
2013-05-07 03:04:00,34.0,28.4,29.89,WNW,301,6.0,7.0,80,0.00,,,0.00,0.0,meteohub,2013-05-07 09:04:00,
2013-05-07 03:09:00,34.9,29.3,29.90,WNW,303,0.0,8.0,80,0.00,,,0.00,0.0,meteohub,2013-05-07 09:09:00,
2013-05-07 03:14:00,36.0,30.4,29.90,NW,324,9.0,9.0,80,0.00,,,0.00,0.0,meteohub,2013-05-07 09:14:00,
2013-05-07 03:20:00,36.3,30.4,29.90,NW,322,7.0,12.0,79,0.00,,,0.00,0.0,meteohub,2013-05-07 09:20:00,
2013-05-07 03:25:00,36.9,30.4,29.90,NNW,328,9.0,12.0,77,0.00,,,0.00,0.0,meteohub,2013-05-07 09:25:00,
2013-05-07 03:30:00,37.2,29.7,29.89,NE,43,1.0,11.0,74,0.00,,,0.00,0.0,meteohub,2013-05-07 09:30:00,
2013-05-07 03:35:00,37.8,30.2,29.90,NNW,345,4.0,11.0,74,0.00,,,0.00,0.0,meteohub,2013-05-07 09:35:00,
2013-05-07 03:40:00,37.9,30.4,29.90,NNE,25,4.0,11.0,74,0.00,,,0.00,0.0,meteohub,2013-05-07 09:40:00,
2013-05-07 03:46:00,37.9,30.0,29.90,NNE,16,4.0,9.0,73,0.00,,,0.00,0.0,meteohub,2013-05-07 09:46:00,
2013-05-07 03:51:00,37.9,29.7,29.89,North,7,2.0,8.0,72,0.00,,,0.00,0.0,meteohub,2013-05-07 09:51:00,
2013-05-07 03:56:00,37.9,29.7,29.89,NE,44,1.0,8.0,72,0.00,,,0.00,0.0,meteohub,2013-05-07 09:56:00,
2013-05-07 04:01:00,37.9,29.7,29.89,NE,53,2.0,8.0,72,0.00,,,0.00,0.0,meteohub,2013-05-07 10:01:00,
2013-05-07 04:06:00,37.9,30.0,29.89,ENE,72,3.0,7.0,73,0.00,,,0.00,0.0,meteohub,2013-05-07 10:06:00,
2013-05-07 04:11:00,37.9,29.7,29.89,ENE,75,2.0,9.0,72,0.00,,,0.00,0.0,meteohub,2013-05-07 10:11:00,
2013-05-07 04:17:00,37.9,30.0,29.89,East,99,7.0,9.0,73,0.00,,,0.00,0.0,meteohub,2013-05-07 10:17:00,
2013-05-07 04:22:00,37.8,30.2,29.89,NNW,330,2.0,9.0,74,0.00,,,0.00,0.0,meteohub,2013-05-07 10:22:00,
2013-05-07 04:27:00,37.9,29.1,29.89,NW,323,3.0,10.0,70,0.00,,,0.00,0.0,meteohub,2013-05-07 10:27:00,
2013-05-07 04:32:00,38.1,29.1,29.89,NE,35,8.0,13.0,70,0.00,,,0.00,0.0,meteohub,2013-05-07 10:32:00,
2013-05-07 04:37:00,38.5,29.1,29.89,NNW,348,4.0,13.0,69,0.00,,,0.00,0.0,meteohub,2013-05-07 10:37:00,
2013-05-07 04:43:00,38.5,29.1,29.89,North,351,4.0,12.0,69,0.00,,,0.00,0.0,meteohub,2013-05-07 10:43:00,
2013-05-07 04:48:00,38.5,29.5,29.89,WNW,295,6.0,12.0,70,0.00,,,0.00,0.0,meteohub,2013-05-07 10:48:00,
2013-05-07 04:53:00,38.5,28.8,29.89,NNE,27,7.0,12.0,68,0.00,,,0.00,0.0,meteohub,2013-05-07 10:53:00,
2013-05-07 04:58:00,38.7,28.9,29.89,NNW,328,6.0,12.0,68,0.00,,,0.00,0.0,meteohub,2013-05-07 10:58:00,
2013-05-07 05:03:00,38.8,28.8,29.89,NW,324,3.0,11.0,67,0.00,,,0.00,0.0,meteohub,2013-05-07 11:03:00,
2013-05-07 05:09:00,38.8,28.8,29.89,ENE,62,6.0,14.0,67,0.00,,,0.00,0.0,meteohub,2013-05-07 11:09:00,
2013-05-07 05:14:00,38.8,28.4,29.89,NW,309,9.0,18.0,66,0.00,,,0.00,0.0,meteohub,2013-05-07 11:14:00,
2013-05-07 05:19:00,38.8,28.0,29.89,NNW,333,9.0,18.0,65,0.00,,,0.00,0.0,meteohub,2013-05-07 11:19:00,
2013-05-07 05:24:00,39.0,28.2,29.89,North,8,10.0,18.0,65,0.00,,,0.00,0.0,meteohub,2013-05-07 11:24:00,
2013-05-07 05:29:00,39.0,28.6,29.89,NNW,337,8.0,15.0,66,0.00,,,0.00,0.0,meteohub,2013-05-07 11:29:00,
2013-05-07 05:35:00,38.8,28.4,29.89,NW,323,9.0,15.0,66,0.00,,,0.00,0.0,meteohub,2013-05-07 11:35:00,
2013-05-07 05:40:00,39.0,27.9,29.89,NNW,327,9.0,16.0,64,0.00,,,0.00,0.0,meteohub,2013-05-07 11:40:00,
2013-05-07 05:45:00,39.4,28.2,29.89,NNE,13,5.0,16.0,64,0.00,,,0.00,0.0,meteohub,2013-05-07 11:45:00,
2013-05-07 05:50:00,39.4,28.2,29.89,NW,320,2.0,16.0,64,0.00,,,0.00,0.0,meteohub,2013-05-07 11:50:00,
2013-05-07 05:55:00,39.4,28.6,29.89,NNW,332,7.0,16.0,65,0.00,,,0.00,0.0,meteohub,2013-05-07 11:55:00,
2013-05-07 06:01:00,39.4,28.6,29.89,NNW,341,7.0,13.0,65,0.00,,,0.00,0.0,meteohub,2013-05-07 12:01:00,
2013-05-07 06:06:00,39.0,28.9,29.89,ENE,75,4.0,13.0,67,0.00,,,0.00,5.0,meteohub,2013-05-07 12:06:00,
2013-05-07 06:11:00,38.8,29.1,29.89,NE,35,6.0,13.0,68,0.00,,,0.00,11.0,meteohub,2013-05-07 12:11:00,
2013-05-07 06:16:00,38.7,29.3,29.89,NW,322,5.0,11.0,69,0.00,,,0.00,18.0,meteohub,2013-05-07 12:16:00,
2013-05-07 06:21:00,38.7,29.7,29.89,NW,319,4.0,11.0,70,0.00,,,0.00,23.0,meteohub,2013-05-07 12:21:00,
2013-05-07 06:27:00,38.7,29.7,29.89,NW,321,7.0,13.0,70,0.00,,,0.00,30.0,meteohub,2013-05-07 12:27:00,
2013-05-07 06:32:00,38.7,30.0,29.89,NW,325,7.0,13.0,71,0.00,,,0.00,39.0,meteohub,2013-05-07 12:32:00,
2013-05-07 06:37:00,38.8,29.8,29.89,NNW,328,5.0,14.0,70,0.00,,,0.00,44.0,meteohub,2013-05-07 12:37:00,
2013-05-07 06:42:00,38.8,29.8,29.89,NNW,347,5.0,14.0,70,0.00,,,0.00,49.0,meteohub,2013-05-07 12:42:00,
2013-05-07 06:47:00,39.0,30.0,29.89,NW,322,7.0,13.0,70,0.00,,,0.00,53.0,meteohub,2013-05-07 12:47:00,
2013-05-07 06:53:00,39.4,29.3,29.89,NNE,12,4.0,13.0,67,0.00,,,0.00,51.0,meteohub,2013-05-07 12:53:00,
2013-05-07 06:58:00,39.6,29.8,29.90,NNW,332,11.0,19.0,68,0.00,,,0.00,47.0,meteohub,2013-05-07 12:58:00,
2013-05-07 07:03:00,39.4,29.7,29.89,NNW,327,7.0,19.0,68,0.00,,,0.00,46.0,meteohub,2013-05-07 13:03:00,
2013-05-07 07:08:00,39.4,29.7,29.90,NW,310,8.0,19.0,68,0.00,,,0.00,47.0,meteohub,2013-05-07 13:08:00,
2013-05-07 07:13:00,39.4,29.7,29.90,NW,316,8.0,18.0,68,0.00,,,0.00,49.0,meteohub,2013-05-07 13:13:00,
2013-05-07 07:18:00,39.6,29.5,29.90,NW,316,8.0,18.0,67,0.00,,,0.00,51.0,meteohub,2013-05-07 13:18:00,
2013-05-07 07:24:00,39.7,29.3,29.90,NNW,328,2.0,23.0,66,0.00,,,0.00,54.0,meteohub,2013-05-07 13:24:00,
2013-05-07 07:29:00,39.7,29.3,29.90,NW,315,7.0,23.0,66,0.00,,,0.00,54.0,meteohub,2013-05-07 13:29:00,
2013-05-07 07:34:00,39.7,29.3,29.90,North,-999,-999.0,20.0,66,0.00,,,0.00,63.0,meteohub,2013-05-07 13:34:00,
2013-05-07 07:39:00,39.7,29.3,29.90,NW,308,10.0,10.0,66,0.00,,,0.00,79.0,meteohub,2013-05-07 13:39:00,
2013-05-07 07:44:00,39.7,29.3,29.89,NW,326,5.0,7.0,66,0.00,,,0.00,90.0,meteohub,2013-05-07 13:44:00,
2013-05-07 07:50:00,39.9,29.5,29.89,NW,318,6.0,10.0,66,0.00,,,0.00,114.0,meteohub,2013-05-07 13:50:00,
2013-05-07 07:55:00,40.3,29.1,29.89,NW,318,8.0,15.0,64,0.00,,,0.00,128.0,meteohub,2013-05-07 13:55:00,
2013-05-07 08:00:00,40.5,29.3,29.89,NE,49,4.0,15.0,64,0.00,,,0.00,132.0,meteohub,2013-05-07 14:00:00,
2013-05-07 08:05:00,40.5,29.7,29.90,NW,325,9.0,15.0,65,0.00,,,0.00,134.0,meteohub,2013-05-07 14:05:00,
2013-05-07 08:10:00,40.6,29.1,29.89,NW,320,6.0,15.0,63,0.00,,,0.00,125.0,meteohub,2013-05-07 14:10:00,
2013-05-07 08:16:00,40.6,29.5,29.90,North,10,3.0,15.0,64,0.00,,,0.00,137.0,meteohub,2013-05-07 14:16:00,
2013-05-07 08:21:00,40.5,29.7,29.90,East,89,13.0,15.0,65,0.00,,,0.00,183.0,meteohub,2013-05-07 14:21:00,
2013-05-07 08:26:00,40.3,29.5,29.90,North,2,5.0,13.0,65,0.00,,,0.00,243.0,meteohub,2013-05-07 14:26:00,
2013-05-07 08:31:00,40.5,28.9,29.89,NNE,29,4.0,13.0,63,0.00,,,0.00,237.0,meteohub,2013-05-07 14:31:00,
2013-05-07 08:36:00,40.8,28.8,29.89,NNW,328,4.0,13.0,62,0.00,,,0.00,334.0,meteohub,2013-05-07 14:36:00,
2013-05-07 08:42:00,41.4,28.9,29.89,NW,326,4.0,13.0,61,0.00,,,0.00,285.0,meteohub,2013-05-07 14:42:00,
2013-05-07 08:47:00,41.7,28.9,29.89,NW,316,1.0,13.0,60,0.00,,,0.00,366.0,meteohub,2013-05-07 14:47:00,
2013-05-07 08:52:00,42.3,29.3,29.89,NNW,331,7.0,13.0,60,0.00,,,0.00,341.0,meteohub,2013-05-07 14:52:00,
2013-05-07 08:57:00,42.6,29.3,29.90,NNW,331,4.0,13.0,59,0.00,,,0.00,577.0,meteohub,2013-05-07 14:57:00,
2013-05-07 09:02:00,43.3,29.1,29.89,NNW,334,4.0,12.0,57,0.00,,,0.00,494.0,meteohub,2013-05-07 15:02:00,
2013-05-07 09:07:00,43.7,29.1,29.90,NE,53,5.0,15.0,56,0.00,,,0.00,338.0,meteohub,2013-05-07 15:07:00,
2013-05-07 09:13:00,43.9,29.1,29.90,NW,326,3.0,15.0,56,0.00,,,0.00,457.0,meteohub,2013-05-07 15:13:00,
2013-05-07 09:18:00,44.1,28.9,29.89,ENE,68,6.0,13.0,55,0.00,,,0.00,441.0,meteohub,2013-05-07 15:18:00,
2013-05-07 09:23:00,44.2,29.1,29.89,NNW,346,3.0,13.0,55,0.00,,,0.00,281.0,meteohub,2013-05-07 15:23:00,
2013-05-07 09:28:00,44.4,28.8,29.90,NW,305,8.0,13.0,54,0.00,,,0.00,508.0,meteohub,2013-05-07 15:28:00,
2013-05-07 09:33:00,44.8,28.2,29.90,East,79,6.0,11.0,52,0.00,,,0.00,504.0,meteohub,2013-05-07 15:33:00,
2013-05-07 09:39:00,45.0,27.9,29.90,NNW,335,6.0,11.0,51,0.00,,,0.00,445.0,meteohub,2013-05-07 15:39:00,
2013-05-07 09:44:00,44.8,28.2,29.90,East,90,3.0,11.0,52,0.00,,,0.00,621.0,meteohub,2013-05-07 15:44:00,
2013-05-07 09:49:00,45.0,27.5,29.90,NW,322,9.0,14.0,50,0.00,,,0.00,318.0,meteohub,2013-05-07 15:49:00,
2013-05-07 09:54:00,45.0,27.0,29.90,NNE,22,5.0,14.0,49,0.00,,,0.00,237.0,meteohub,2013-05-07 15:54:00,
2013-05-07 09:59:00,45.0,27.9,29.90,NNW,330,5.0,15.0,51,0.00,,,0.00,232.0,meteohub,2013-05-07 15:59:00,
2013-05-07 10:04:00,45.0,27.9,29.91,NW,324,5.0,15.0,51,0.00,,,0.00,283.0,meteohub,2013-05-07 16:04:00,
2013-05-07 10:10:00,45.0,29.3,29.91,NW,324,6.0,15.0,54,0.00,,,0.00,320.0,meteohub,2013-05-07 16:10:00,
2013-05-07 10:15:00,45.1,28.6,29.91,NNE,16,3.0,13.0,52,0.00,,,0.00,392.0,meteohub,2013-05-07 16:15:00,
2013-05-07 10:20:00,45.1,28.0,29.91,NE,48,2.0,13.0,51,0.00,,,0.00,309.0,meteohub,2013-05-07 16:20:00,
2013-05-07 10:25:00,45.5,28.9,29.91,ENE,62,7.0,13.0,52,0.00,,,0.00,499.0,meteohub,2013-05-07 16:25:00,
2013-05-07 10:30:00,46.0,28.9,29.91,ESE,116,2.0,12.0,51,0.00,,,0.00,684.0,meteohub,2013-05-07 16:30:00,
2013-05-07 10:36:00,46.6,29.5,29.91,East,89,2.0,11.0,51,0.00,,,0.00,232.0,meteohub,2013-05-07 16:36:00,
2013-05-07 10:41:00,46.6,29.5,29.91,NW,306,6.0,11.0,51,0.00,,,0.00,232.0,meteohub,2013-05-07 16:41:00,
2013-05-07 10:46:00,46.9,28.8,29.91,NW,324,5.0,11.0,49,0.00,,,0.00,267.0,meteohub,2013-05-07 16:46:00,
2013-05-07 10:51:00,46.9,27.7,29.91,ESE,120,4.0,11.0,47,0.00,,,0.00,232.0,meteohub,2013-05-07 16:51:00,
2013-05-07 10:56:00,46.9,28.8,29.91,NE,35,1.0,15.0,49,0.00,,,0.00,733.0,meteohub,2013-05-07 16:56:00,
2013-05-07 11:02:00,47.1,29.5,29.90,NW,318,5.0,15.0,50,0.00,,,0.00,761.0,meteohub,2013-05-07 17:02:00,
2013-05-07 11:07:00,47.7,28.9,29.91,NW,312,2.0,11.0,48,0.00,,,0.00,849.0,meteohub,2013-05-07 17:07:00,
2013-05-07 11:12:00,48.0,28.8,29.90,WNW,298,8.0,11.0,47,0.00,,,0.00,817.0,meteohub,2013-05-07 17:12:00,
2013-05-07 11:17:00,48.0,29.3,29.90,North,0,5.0,11.0,48,0.00,,,0.00,457.0,meteohub,2013-05-07 17:17:00,
2013-05-07 11:23:00,48.0,29.8,29.90,NE,38,5.0,13.0,49,0.00,,,0.00,608.0,meteohub,2013-05-07 17:23:00,
2013-05-07 11:28:00,47.8,29.7,29.90,East,92,6.0,13.0,49,0.00,,,0.00,193.0,meteohub,2013-05-07 17:28:00,
2013-05-07 11:33:00,47.8,30.0,29.89,NE,54,9.0,13.0,50,0.00,,,0.00,209.0,meteohub,2013-05-07 17:33:00,
2013-05-07 11:38:00,48.0,30.2,29.89,NE,39,5.0,13.0,50,0.00,,,0.00,835.0,meteohub,2013-05-07 17:38:00,
2013-05-07 11:43:00,48.0,29.3,29.90,NNW,337,9.0,12.0,48,0.00,,,0.00,823.0,meteohub,2013-05-07 17:43:00,
2013-05-07 11:48:00,48.0,29.8,29.89,NNW,335,4.0,12.0,49,0.00,,,0.00,842.0,meteohub,2013-05-07 17:48:00,
2013-05-07 11:54:00,48.0,28.8,29.89,SE,131,5.0,12.0,47,0.00,,,0.00,849.0,meteohub,2013-05-07 17:54:00,
2013-05-07 11:59:00,47.8,28.6,29.89,NNW,330,5.0,12.0,47,0.00,,,0.00,877.0,meteohub,2013-05-07 17:59:00,
2013-05-07 12:04:00,48.2,29.5,29.89,NNE,33,7.0,12.0,48,0.00,,,0.00,896.0,meteohub,2013-05-07 18:04:00,
2013-05-07 12:09:00,48.4,29.7,29.88,NNW,330,9.0,12.0,48,0.00,,,0.00,889.0,meteohub,2013-05-07 18:09:00,
2013-05-07 12:14:00,48.6,30.7,29.88,NNE,26,0.0,14.0,50,0.00,,,0.00,858.0,meteohub,2013-05-07 18:14:00,
2013-05-07 12:20:00,48.7,29.8,29.88,NNW,330,4.0,14.0,48,0.00,,,0.00,895.0,meteohub,2013-05-07 18:20:00,
2013-05-07 12:25:00,48.9,30.6,29.88,NW,306,12.0,13.0,49,0.00,,,0.00,942.0,meteohub,2013-05-07 18:25:00,
2013-05-07 12:30:00,48.7,30.4,29.88,NW,313,7.0,18.0,49,0.00,,,0.00,949.0,meteohub,2013-05-07 18:30:00,
2013-05-07 12:35:00,48.7,29.5,29.88,NNE,19,9.0,18.0,47,0.00,,,0.00,984.0,meteohub,2013-05-07 18:35:00,
2013-05-07 12:40:00,48.6,28.2,29.88,NE,47,6.0,18.0,45,0.00,,,0.00,1062.0,meteohub,2013-05-07 18:40:00,
2013-05-07 12:46:00,49.3,28.8,29.88,North,1,5.0,14.0,45,0.00,,,0.00,1032.0,meteohub,2013-05-07 18:46:00,
2013-05-07 12:51:00,49.3,27.7,29.88,NE,35,3.0,14.0,43,0.00,,,0.00,1034.0,meteohub,2013-05-07 18:51:00,
2013-05-07 12:56:00,49.6,28.0,29.88,NW,318,7.0,13.0,43,0.00,,,0.00,1016.0,meteohub,2013-05-07 18:56:00,
2013-05-07 13:01:00,50.2,28.0,29.88,North,5,7.0,13.0,42,0.00,,,0.00,1034.0,meteohub,2013-05-07 19:01:00,
2013-05-07 13:06:00,50.4,27.5,29.88,NW,314,3.0,13.0,41,0.00,,,0.00,1053.0,meteohub,2013-05-07 19:06:00,
2013-05-07 13:12:00,50.5,26.4,29.87,NNW,328,7.0,13.0,39,0.00,,,0.00,1090.0,meteohub,2013-05-07 19:12:00,
2013-05-07 13:17:00,50.4,27.0,29.88,NE,36,13.0,13.0,40,0.00,,,0.00,1051.0,meteohub,2013-05-07 19:17:00,
2013-05-07 13:22:00,50.7,26.1,29.87,NE,38,4.0,14.0,38,0.00,,,0.00,1014.0,meteohub,2013-05-07 19:22:00,
2013-05-07 13:27:00,51.3,26.6,29.87,NW,322,6.0,14.0,38,0.00,,,0.00,986.0,meteohub,2013-05-07 19:27:00,
2013-05-07 13:32:00,51.1,27.0,29.87,ENE,66,0.0,13.0,39,0.00,,,0.00,956.0,meteohub,2013-05-07 19:32:00,
2013-05-07 13:38:00,51.1,25.7,29.87,WNW,285,2.0,18.0,37,0.00,,,0.00,991.0,meteohub,2013-05-07 19:38:00,
2013-05-07 13:43:00,51.3,27.1,29.87,North,0,7.0,18.0,39,0.00,,,0.00,984.0,meteohub,2013-05-07 19:43:00,
2013-05-07 13:48:00,51.4,25.3,29.87,NNW,330,9.0,14.0,36,0.00,,,0.00,991.0,meteohub,2013-05-07 19:48:00,
2013-05-07 13:53:00,51.4,24.1,29.87,North,3,1.0,14.0,34,0.00,,,0.00,967.0,meteohub,2013-05-07 19:53:00,
2013-05-07 13:58:00,52.0,24.4,29.86,NW,317,10.0,14.0,34,0.00,,,0.00,960.0,meteohub,2013-05-07 19:58:00,
2013-05-07 14:04:00,51.4,22.6,29.87,NW,326,5.0,14.0,32,0.00,,,0.00,956.0,meteohub,2013-05-07 20:04:00,
2013-05-07 14:09:00,51.4,24.1,29.87,NNW,334,4.0,14.0,34,0.00,,,0.00,965.0,meteohub,2013-05-07 20:09:00,
2013-05-07 14:14:00,51.6,26.2,29.87,ENE,62,6.0,14.0,37,0.00,,,0.00,949.0,meteohub,2013-05-07 20:14:00,
2013-05-07 14:19:00,52.2,26.6,29.87,NNE,13,3.0,15.0,37,0.00,,,0.00,946.0,meteohub,2013-05-07 20:19:00,
2013-05-07 14:24:00,52.3,28.8,29.87,ENE,75,3.0,15.0,40,0.00,,,0.00,953.0,meteohub,2013-05-07 20:24:00,
2013-05-07 14:29:00,52.3,26.8,29.87,NNW,334,4.0,15.0,37,0.00,,,0.00,951.0,meteohub,2013-05-07 20:29:00,
2013-05-07 14:35:00,52.5,25.0,29.87,East,93,2.0,12.0,34,0.00,,,0.00,925.0,meteohub,2013-05-07 20:35:00,
2013-05-07 14:40:00,52.7,25.2,29.86,East,84,4.0,12.0,34,0.00,,,0.00,921.0,meteohub,2013-05-07 20:40:00,
2013-05-07 14:45:00,52.9,22.3,29.87,NW,308,1.0,12.0,30,0.00,,,0.00,956.0,meteohub,2013-05-07 20:45:00,
2013-05-07 14:50:00,52.3,22.6,29.87,NW,325,15.0,15.0,31,0.00,,,0.00,236.0,meteohub,2013-05-07 20:50:00,
2013-05-07 14:55:00,51.4,24.1,29.87,WNW,301,7.0,18.0,34,0.00,,,0.00,355.0,meteohub,2013-05-07 20:55:00,
2013-05-07 15:01:00,51.1,25.7,29.87,NW,316,6.0,18.0,37,0.00,,,0.00,327.0,meteohub,2013-05-07 21:01:00,
2013-05-07 15:06:00,50.0,27.9,29.87,NW,314,14.0,25.0,42,0.00,,,0.00,875.0,meteohub,2013-05-07 21:06:00,
2013-05-07 15:11:00,49.6,27.5,29.86,NNW,330,8.0,25.0,42,0.00,,,0.00,1007.0,meteohub,2013-05-07 21:11:00,
2013-05-07 15:16:00,50.2,26.2,29.86,NW,313,10.0,25.0,39,0.00,,,0.00,914.0,meteohub,2013-05-07 21:16:00,
2013-05-07 15:21:00,50.4,25.0,29.86,NW,321,2.0,20.0,37,0.00,,,0.00,816.0,meteohub,2013-05-07 21:21:00,
2013-05-07 15:27:00,51.1,25.7,29.86,East,88,6.0,18.0,37,0.00,,,0.00,693.0,meteohub,2013-05-07 21:27:00,
2013-05-07 15:32:00,51.8,23.5,29.86,NW,321,0.0,18.0,33,0.00,,,0.00,640.0,meteohub,2013-05-07 21:32:00,
2013-05-07 15:37:00,52.5,25.7,29.86,NW,321,4.0,10.0,35,0.00,,,0.00,740.0,meteohub,2013-05-07 21:37:00,
2013-05-07 15:42:00,52.9,28.0,29.86,ENE,77,3.0,9.0,38,0.00,,,0.00,793.0,meteohub,2013-05-07 21:42:00,
2013-05-07 15:47:00,53.4,27.9,29.86,North,358,5.0,11.0,37,0.00,,,0.00,824.0,meteohub,2013-05-07 21:47:00,
2013-05-07 15:53:00,53.2,27.7,29.86,NE,49,2.0,11.0,37,0.00,,,0.00,817.0,meteohub,2013-05-07 21:53:00,
2013-05-07 15:58:00,52.9,26.6,29.86,East,96,1.0,10.0,36,0.00,,,0.00,258.0,meteohub,2013-05-07 21:58:00,
2013-05-07 16:03:00,52.7,28.4,29.86,WNW,296,7.0,9.0,39,0.00,,,0.00,469.0,meteohub,2013-05-07 22:03:00,
2013-05-07 16:08:00,52.5,27.7,29.86,ESE,112,4.0,9.0,38,0.00,,,0.00,587.0,meteohub,2013-05-07 22:08:00,
2013-05-07 16:13:00,52.5,28.9,29.86,ESE,111,1.0,9.0,40,0.00,,,0.00,285.0,meteohub,2013-05-07 22:13:00,
2013-05-07 16:18:00,52.5,27.7,29.86,NNE,23,0.0,9.0,38,0.00,,,0.00,582.0,meteohub,2013-05-07 22:18:00,
2013-05-07 16:24:00,52.5,27.7,29.86,NNW,348,4.0,9.0,38,0.00,,,0.00,656.0,meteohub,2013-05-07 22:24:00,
2013-05-07 16:29:00,52.3,27.5,29.86,North,11,0.0,11.0,38,0.00,,,0.00,200.0,meteohub,2013-05-07 22:29:00,
2013-05-07 16:34:00,51.6,27.5,29.86,NW,319,6.0,11.0,39,0.00,,,0.00,285.0,meteohub,2013-05-07 22:34:00,
2013-05-07 16:39:00,50.9,26.8,29.86,ENE,69,4.0,11.0,39,0.00,,,0.00,320.0,meteohub,2013-05-07 22:39:00,
2013-05-07 16:44:00,50.7,27.3,29.86,NE,54,0.0,12.0,40,0.00,,,0.00,237.0,meteohub,2013-05-07 22:44:00,
2013-05-07 16:50:00,50.5,27.1,29.86,NW,317,1.0,12.0,40,0.00,,,0.00,216.0,meteohub,2013-05-07 22:50:00,
2013-05-07 16:55:00,50.5,28.2,29.86,NW,318,1.0,7.0,42,0.00,,,0.00,185.0,meteohub,2013-05-07 22:55:00,
2013-05-07 17:00:00,50.4,32.4,29.86,NE,45,5.0,7.0,50,0.00,,,0.00,160.0,meteohub,2013-05-07 23:00:00,
2013-05-07 17:05:00,49.6,33.3,29.87,South,180,4.0,7.0,53,0.00,,,0.00,185.0,meteohub,2013-05-07 23:05:00,
2013-05-07 17:10:00,48.9,33.1,29.86,South,191,1.0,8.0,54,0.00,,,0.00,158.0,meteohub,2013-05-07 23:10:00,
2013-05-07 17:16:00,48.6,33.6,29.86,SE,124,2.0,8.0,56,0.00,,,0.00,146.0,meteohub,2013-05-07 23:16:00,
2013-05-07 17:21:00,48.2,34.2,29.87,SE,129,2.0,8.0,58,0.00,,,0.00,183.0,meteohub,2013-05-07 23:21:00,
2013-05-07 17:26:00,47.8,33.8,29.87,SE,131,2.0,8.0,58,0.00,,,0.00,137.0,meteohub,2013-05-07 23:26:00,
2013-05-07 17:31:00,47.5,33.8,29.87,ESE,122,6.0,8.0,59,0.00,,,0.00,134.0,meteohub,2013-05-07 23:31:00,
2013-05-07 17:36:00,47.1,33.4,29.87,SE,129,1.0,9.0,59,0.00,,,0.00,125.0,meteohub,2013-05-07 23:36:00,
2013-05-07 17:41:00,47.1,34.3,29.87,ESE,123,4.0,9.0,61,0.00,,,0.00,120.0,meteohub,2013-05-07 23:41:00,
2013-05-07 17:47:00,46.9,35.1,29.86,SE,131,4.0,9.0,63,0.00,,,0.00,155.0,meteohub,2013-05-07 23:47:00,
2013-05-07 17:52:00,46.6,35.1,29.86,SE,131,6.0,13.0,64,0.00,,,0.00,88.0,meteohub,2013-05-07 23:52:00,
2013-05-07 17:57:00,46.0,34.9,29.86,SE,132,6.0,13.0,65,0.00,,,0.00,70.0,meteohub,2013-05-07 23:57:00,
2013-05-07 18:02:00,45.7,34.5,29.86,ESE,111,4.0,9.0,65,0.00,,,0.00,70.0,meteohub,2013-05-08 00:02:00,
2013-05-07 18:07:00,45.3,34.3,29.86,SE,129,1.0,9.0,65,0.00,,,0.00,74.0,meteohub,2013-05-08 00:07:00,
2013-05-07 18:13:00,45.3,34.3,29.86,ESE,114,1.0,9.0,65,0.00,,,0.00,56.0,meteohub,2013-05-08 00:13:00,
2013-05-07 18:18:00,45.1,34.5,29.86,ESE,114,0.0,9.0,66,0.00,,,0.00,39.0,meteohub,2013-05-08 00:18:00,
2013-05-07 18:23:00,45.1,34.5,29.87,ESE,114,1.0,9.0,66,0.00,,,0.00,23.0,meteohub,2013-05-08 00:23:00,
2013-05-07 18:28:00,45.1,34.5,29.87,ESE,114,0.0,7.0,66,0.00,,,0.00,25.0,meteohub,2013-05-08 00:28:00,
2013-05-07 18:33:00,45.0,34.3,29.87,ESE,114,0.0,6.0,66,0.00,,,0.00,30.0,meteohub,2013-05-08 00:33:00,
2013-05-07 18:38:00,45.1,34.2,29.88,ESE,114,0.0,5.0,65,0.00,,,0.00,28.0,meteohub,2013-05-08 00:38:00,
2013-05-07 18:44:00,45.0,34.0,29.88,ESE,114,0.0,4.0,65,0.00,,,0.00,33.0,meteohub,2013-05-08 00:44:00,
2013-05-07 18:49:00,44.8,34.2,29.88,SE,134,2.0,2.0,66,0.00,,,0.00,40.0,meteohub,2013-05-08 00:49:00,
2013-05-07 18:54:00,44.1,34.2,29.87,South,170,1.0,6.0,68,0.00,,,0.00,39.0,meteohub,2013-05-08 00:54:00,
2013-05-07 18:59:00,43.5,34.3,29.88,South,170,0.0,8.0,70,0.00,,,0.00,28.0,meteohub,2013-05-08 00:59:00,
2013-05-07 19:04:00,43.0,34.5,29.89,South,175,0.0,8.0,72,0.00,,,0.00,14.0,meteohub,2013-05-08 01:04:00,
2013-05-07 19:10:00,42.3,34.2,29.89,WNW,302,7.0,8.0,73,0.00,,,0.00,7.0,meteohub,2013-05-08 01:10:00,
2013-05-07 19:15:00,41.7,34.3,29.89,WNW,299,9.0,11.0,75,0.00,,,0.00,5.0,meteohub,2013-05-08 01:15:00,
2013-05-07 19:20:00,41.4,34.3,29.90,WNW,303,7.0,11.0,76,0.00,,,0.00,5.0,meteohub,2013-05-08 01:20:00,
2013-05-07 19:25:00,40.3,34.5,29.89,WNW,303,2.0,11.0,80,0.01,,,0.01,11.0,meteohub,2013-05-08 01:25:00,
2013-05-07 19:30:00,39.4,34.0,29.90,WNW,303,3.0,11.0,81,0.02,,,0.02,12.0,meteohub,2013-05-08 01:30:00,
2013-05-07 19:36:00,38.8,34.2,29.90,WNW,303,3.0,8.0,83,0.02,,,0.02,12.0,meteohub,2013-05-08 01:36:00,
2013-05-07 19:41:00,38.3,34.2,29.89,WNW,303,4.0,7.0,85,0.02,,,0.02,12.0,meteohub,2013-05-08 01:41:00,
2013-05-07 19:46:00,37.9,34.2,29.89,WNW,303,2.0,7.0,86,0.02,,,0.02,12.0,meteohub,2013-05-08 01:46:00,
2013-05-07 19:51:00,37.9,34.2,29.89,WNW,303,0.0,5.0,86,0.02,,,0.02,11.0,meteohub,2013-05-08 01:51:00,
2013-05-07 19:56:00,37.9,34.7,29.89,WNW,303,0.0,5.0,88,0.02,,,0.02,9.0,meteohub,2013-05-08 01:56:00,
2013-05-07 20:02:00,37.9,34.7,29.89,WNW,303,1.0,5.0,88,0.02,,,0.02,0.0,meteohub,2013-05-08 02:02:00,
2013-05-07 20:07:00,37.8,34.9,29.89,WNW,303,5.0,5.0,89,0.03,,,0.03,0.0,meteohub,2013-05-08 02:07:00,
2013-05-07 20:12:00,37.6,34.7,29.89,WNW,303,2.0,5.0,89,0.03,,,0.03,0.0,meteohub,2013-05-08 02:12:00,
2013-05-07 20:17:00,37.2,34.3,29.89,WNW,303,4.0,5.0,89,0.03,,,0.03,0.0,meteohub,2013-05-08 02:17:00,
2013-05-07 20:22:00,37.0,34.3,29.89,WNW,303,5.0,5.0,90,0.03,,,0.03,0.0,meteohub,2013-05-08 02:22:00,
2013-05-07 20:27:00,37.0,34.3,29.89,WNW,303,4.0,5.0,90,0.02,,,0.03,0.0,meteohub,2013-05-08 02:27:00,
2013-05-07 20:33:00,36.9,34.2,29.90,WNW,303,1.0,5.0,90,0.01,,,0.03,0.0,meteohub,2013-05-08 02:33:00,
2013-05-07 20:38:00,36.9,34.2,29.90,WNW,303,1.0,5.0,90,0.01,,,0.03,0.0,meteohub,2013-05-08 02:38:00,
2013-05-07 20:43:00,36.7,34.0,29.91,North,-999,-999.0,5.0,90,0.01,,,0.03,0.0,meteohub,2013-05-08 02:43:00,
2013-05-07 20:48:00,36.9,34.5,29.91,WNW,303,0.0,4.0,91,0.01,,,0.03,0.0,meteohub,2013-05-08 02:48:00,
2013-05-07 20:53:00,36.9,34.5,29.91,WNW,303,0.0,1.0,91,0.01,,,0.03,0.0,meteohub,2013-05-08 02:53:00,
2013-05-07 20:59:00,36.9,34.5,29.91,WNW,303,0.0,2.0,91,0.01,,,0.03,0.0,meteohub,2013-05-08 02:59:00,
2013-05-07 21:04:00,36.9,34.5,29.91,WNW,303,0.0,2.0,91,0.00,,,0.03,0.0,meteohub,2013-05-08 03:04:00,
2013-05-07 21:09:00,36.9,34.5,29.91,WNW,303,4.0,4.0,91,0.00,,,0.03,0.0,meteohub,2013-05-08 03:09:00,
2013-05-07 21:14:00,36.9,34.5,29.92,WNW,303,0.0,2.0,91,0.00,,,0.03,0.0,meteohub,2013-05-08 03:14:00,
2013-05-07 21:19:00,36.7,34.3,29.92,WNW,303,2.0,5.0,91,0.00,,,0.03,0.0,meteohub,2013-05-08 03:19:00,
2013-05-07 21:25:00,36.9,34.7,29.92,WNW,303,5.0,5.0,92,0.00,,,0.04,0.0,meteohub,2013-05-08 03:25:00,
2013-05-07 21:30:00,36.7,34.3,29.92,WNW,303,0.0,6.0,91,0.01,,,0.04,0.0,meteohub,2013-05-08 03:30:00,
2013-05-07 21:35:00,36.7,34.5,29.92,WNW,303,0.0,6.0,92,0.01,,,0.04,0.0,meteohub,2013-05-08 03:35:00,
2013-05-07 21:40:00,36.7,34.5,29.92,WNW,303,0.0,6.0,92,0.01,,,0.04,0.0,meteohub,2013-05-08 03:40:00,
2013-05-07 21:45:00,36.9,34.7,29.93,WNW,303,4.0,4.0,92,0.01,,,0.04,0.0,meteohub,2013-05-08 03:45:00,
2013-05-07 21:51:00,36.9,34.7,29.93,WNW,303,3.0,4.0,92,0.01,,,0.04,0.0,meteohub,2013-05-08 03:51:00,
2013-05-07 21:56:00,37.0,34.9,29.93,WNW,303,1.0,4.0,92,0.01,,,0.04,0.0,meteohub,2013-05-08 03:56:00,
2013-05-07 22:01:00,37.2,35.1,29.94,WNW,303,0.0,4.0,92,0.01,,,0.04,0.0,meteohub,2013-05-08 04:01:00,
2013-05-07 22:03:00,37.2,35.1,29.94,WNW,303,0.0,4.0,92,0.01,,,0.04,0.0,meteohub,2013-05-08 04:03:00,
2013-05-07 22:04:00,37.2,35.1,29.94,WNW,303,2.0,4.0,92,0.01,,,0.04,0.0,meteohub,2013-05-08 04:04:00,
2013-05-07 22:09:00,37.4,35.1,29.94,WNW,303,0.0,4.0,91,0.01,,,0.04,0.0,meteohub,2013-05-08 04:09:00,
2013-05-07 22:14:00,37.6,35.2,29.94,WNW,303,0.0,4.0,91,0.01,,,0.04,0.0,meteohub,2013-05-08 04:14:00,
2013-05-07 22:20:00,37.2,34.9,29.94,WNW,303,2.0,3.0,91,0.00,,,0.04,0.0,meteohub,2013-05-08 04:20:00,
2013-05-07 22:25:00,36.9,34.5,29.94,WNW,303,0.0,3.0,91,0.00,,,0.04,0.0,meteohub,2013-05-08 04:25:00,
2013-05-07 22:30:00,36.9,34.5,29.94,WNW,303,0.0,3.0,91,0.00,,,0.04,0.0,meteohub,2013-05-08 04:30:00,
2013-05-07 22:35:00,36.9,34.5,29.94,WNW,303,2.0,4.0,91,0.00,,,0.04,0.0,meteohub,2013-05-08 04:35:00,
2013-05-07 22:40:00,36.9,34.5,29.94,WNW,303,2.0,4.0,91,0.00,,,0.04,0.0,meteohub,2013-05-08 04:40:00,
2013-05-07 22:46:00,36.7,34.3,29.94,North,-999,-999.0,4.0,91,0.00,,,0.04,0.0,meteohub,2013-05-08 04:46:00,
2013-05-07 22:51:00,36.5,34.2,29.94,WNW,303,2.0,4.0,91,0.00,,,0.04,0.0,meteohub,2013-05-08 04:51:00,
2013-05-07 22:56:00,36.3,34.0,29.94,WNW,303,4.0,4.0,91,0.00,,,0.04,0.0,meteohub,2013-05-08 04:56:00,
2013-05-07 23:01:00,36.1,33.8,29.93,WNW,303,2.0,5.0,91,0.00,,,0.04,0.0,meteohub,2013-05-08 05:01:00,
2013-05-07 23:06:00,36.1,34.0,29.93,WNW,303,0.0,5.0,92,0.00,,,0.04,0.0,meteohub,2013-05-08 05:06:00,
2013-05-07 23:12:00,36.0,33.6,29.93,WNW,303,2.0,5.0,91,0.00,,,0.04,0.0,meteohub,2013-05-08 05:12:00,
2013-05-07 23:17:00,36.0,33.8,29.94,WNW,303,4.0,4.0,92,0.00,,,0.04,0.0,meteohub,2013-05-08 05:17:00,
2013-05-07 23:22:00,35.8,33.6,29.94,WNW,303,4.0,5.0,92,0.00,,,0.04,0.0,meteohub,2013-05-08 05:22:00,
2013-05-07 23:27:00,35.6,33.4,29.94,WNW,303,0.0,5.0,92,0.00,,,0.04,0.0,meteohub,2013-05-08 05:27:00,
2013-05-07 23:32:00,35.4,33.3,29.94,WNW,303,2.0,5.0,92,0.00,,,0.04,0.0,meteohub,2013-05-08 05:32:00,
2013-05-07 23:38:00,35.4,33.3,29.94,WNW,303,4.0,5.0,92,0.00,,,0.04,0.0,meteohub,2013-05-08 05:38:00,
2013-05-07 23:43:00,35.6,33.4,29.93,WNW,303,1.0,10.0,92,0.00,,,0.04,0.0,meteohub,2013-05-08 05:43:00,
2013-05-07 23:48:00,35.8,33.4,29.93,WNW,303,0.0,10.0,91,0.01,,,0.05,0.0,meteohub,2013-05-08 05:48:00,
2013-05-07 23:53:00,35.6,32.9,29.92,WNW,303,2.0,10.0,90,0.01,,,0.05,0.0,meteohub,2013-05-08 05:53:00,
2013-05-07 23:58:00,35.6,32.9,29.92,WNW,303,0.0,5.0,90,0.01,,,0.05,0.0,meteohub,2013-05-08 05:58:00,